When you browse on this site, cookies collect data to enhance your experience and personalize the content and advertising you see.
Visit our Privacy Policy to learn more. By continuing to use the site, you agree to this use of cookies and data.
  • In Romania
  • List of Countries
  • For 7 days
  • Water Temperature
  • Weather Map
  • Weather Widgets
  • user-avatar
    Login

    Hourly Weather Brashov

    Today, 5 June, Friday

    Time Temperature Precipitation Wind Pressure Humidity
    00:00 +10°C° 0 mm 2 mps 679 mmHg 87%
    01:00 +10°C° 0 mm 2 mps 679 mmHg 86%
    02:00 +12°C° 0 mm 2 mps 679 mmHg 87%
    03:00 +10°C° 0 mm 2 mps 679 mmHg 87%
    04:00 +10°C° 0 mm 2 mps 679 mmHg 87%
    05:00 +9°C° 0 mm 2 mps 679 mmHg 87%
    06:00 +13°C° 0 mm 2 mps 679 mmHg 80%
    07:00 +15°C° 0 mm 2 mps 680 mmHg 74%
    08:00 +17°C° 0 mm 2 mps 681 mmHg 68%
    09:00 +19°C° 0 mm 2 mps 681 mmHg 60%
    10:00 +20°C° 0 mm 2 mps 681 mmHg 52%
    11:00 +23°C° 0 mm 2 mps 681 mmHg 44%
    12:00 +22°C° 0 mm 3 mps 681 mmHg 45%
    13:00 +22°C° 0 mm 4 mps 681 mmHg 45%
    14:00 +23°C° 0 mm 5 mps 681 mmHg 45%
    15:00 +22°C° 0 mm 4 mps 681 mmHg 48%
    16:00 +22°C° 0 mm 4 mps 681 mmHg 51%
    17:00 +22°C° 0 mm 3 mps 681 mmHg 54%
    18:00 +20°C° 0 mm 3 mps 681 mmHg 61%
    19:00 +17°C° 0 mm 3 mps 680 mmHg 67%
    20:00 +15°C° 0 mm 2 mps 680 mmHg 74%
    21:00 +15°C° 0 mm 2 mps 680 mmHg 73%
    22:00 +14°C° 0 mm 2 mps 680 mmHg 73%
    23:00 +14°C° 0 mm 2 mps 681 mmHg 73%

    Tomorrow, 6 June, Saturday

    Time Temperature Precipitation Wind Pressure Humidity
    00:00 +14°C° 0 mm 2 mps 681 mmHg 73%
    01:00 +13°C° 0 mm 1 mps 681 mmHg 73%
    02:00 +13°C° 0 mm 1 mps 681 mmHg 73%
    03:00 +13°C° 0 mm 1 mps 681 mmHg 74%
    04:00 +13°C° 0 mm 1 mps 681 mmHg 74%
    05:00 +13°C° 0 mm 1 mps 681 mmHg 75%
    06:00 +15°C° 0 mm 1 mps 682 mmHg 71%
    07:00 +18°C° 0 mm 1 mps 683 mmHg 66%
    08:00 +21°C° 0 mm 1 mps 683 mmHg 61%
    09:00 +22°C° 0 mm 1 mps 684 mmHg 57%
    10:00 +24°C° 0 mm 2 mps 684 mmHg 53%
    11:00 +25°C° 0 mm 2 mps 684 mmHg 49%
    12:00 +26°C° 0 mm 3 mps 684 mmHg 49%
    13:00 +26°C° 0 mm 4 mps 684 mmHg 50%
    14:00 +26°C° 0 mm 5 mps 684 mmHg 51%
    15:00 +25°C° 0 mm 4 mps 684 mmHg 51%
    16:00 +25°C° 0 mm 4 mps 683 mmHg 52%
    17:00 +23°C° 0 mm 4 mps 683 mmHg 53%
    18:00 +21°C° 0 mm 3 mps 683 mmHg 59%
    19:00 +18°C° 0 mm 3 mps 682 mmHg 65%
    20:00 +16°C° 0 mm 3 mps 682 mmHg 70%
    21:00 +14°C° 0 mm 3 mps 682 mmHg 71%
    22:00 +15°C° 0 mm 2 mps 682 mmHg 73%
    23:00 +14°C° 0 mm 2 mps 682 mmHg 74%

    Day after tomorrow, 7 June, Sunday

    Time Temperature Precipitation Wind Pressure Humidity
    00:00 +14°C° 0 mm 2 mps 682 mmHg 74%
    01:00 +14°C° 0 mm 2 mps 682 mmHg 75%
    02:00 +13°C° 0 mm 2 mps 682 mmHg 75%
    03:00 +13°C° 0 mm 2 mps 682 mmHg 74%
    04:00 +13°C° 0 mm 2 mps 682 mmHg 72%
    05:00 +13°C° 0 mm 2 mps 682 mmHg 71%
    06:00 +15°C° 0 mm 2 mps 683 mmHg 66%
    07:00 +18°C° 0 mm 1 mps 683 mmHg 62%
    08:00 +20°C° 0 mm 1 mps 684 mmHg 57%
    09:00 +20°C° 0 mm 2 mps 684 mmHg 53%
    10:00 +23°C° 0 mm 2 mps 684 mmHg 49%
    11:00 +24°C° 0 mm 3 mps 684 mmHg 46%
    12:00 +24°C° 0 mm 3 mps 684 mmHg 46%
    13:00 +23°C° 0 mm 4 mps 684 mmHg 46%
    14:00 +23°C° 0 mm 4 mps 684 mmHg 46%
    15:00 +22°C° 0 mm 4 mps 684 mmHg 50%
    16:00 +22°C° 0 mm 3 mps 684 mmHg 53%
    17:00 +21°C° 0 mm 2 mps 683 mmHg 56%
    18:00 +19°C° 0 mm 2 mps 683 mmHg 62%
    19:00 +18°C° 0 mm 2 mps 683 mmHg 68%
    20:00 +16°C° 0 mm 2 mps 682 mmHg 74%
    21:00 +15°C° 0 mm 1 mps 682 mmHg 74%
    22:00 +14°C° 0 mm 1 mps 682 mmHg 75%
    23:00 +13°C° 0 mm 1 mps 682 mmHg 75%

    8 June, Monday

    Time Temperature Precipitation Wind Pressure Humidity
    00:00 +12°C° 0 mm 1 mps 682 mmHg 75%
    01:00 +12°C° 0 mm 1 mps 681 mmHg 74%
    02:00 +11°C° 0 mm 1 mps 681 mmHg 74%
    03:00 +11°C° 0 mm 1 mps 681 mmHg 75%
    04:00 +11°C° 0 mm 1 mps 681 mmHg 76%
    05:00 +11°C° 0 mm 1 mps 681 mmHg 77%
    06:00 +12°C° 0 mm 0 mps 681 mmHg 71%
    07:00 +15°C° 0 mm 0 mps 682 mmHg 66%
    08:00 +17°C° 0 mm 0 mps 683 mmHg 61%
    09:00 +20°C° 0 mm 1 mps 683 mmHg 58%
    10:00 +22°C° 0 mm 1 mps 683 mmHg 55%
    11:00 +23°C° 0 mm 2 mps 683 mmHg 52%
    12:00 +23°C° 0.4 mm 2 mps 683 mmHg 54%
    13:00 +24°C° 0.4 mm 2 mps 683 mmHg 56%
    14:00 +24°C° 0.4 mm 2 mps 683 mmHg 59%
    15:00 +23°C° 0.6 mm 2 mps 682 mmHg 63%
    16:00 +23°C° 0.6 mm 2 mps 682 mmHg 67%
    17:00 +21°C° 0.6 mm 2 mps 682 mmHg 72%
    18:00 +20°C° 0.5 mm 1 mps 682 mmHg 77%
    19:00 +18°C° 0.5 mm 1 mps 681 mmHg 82%
    20:00 +15°C° 0.5 mm 1 mps 681 mmHg 87%
    21:00 +15°C° 0.1 mm 1 mps 681 mmHg 88%
    22:00 +14°C° 0.1 mm 1 mps 681 mmHg 89%
    23:00 +14°C° 0.1 mm 1 mps 681 mmHg 90%

    9 June, Tuesday

    Time Temperature Precipitation Wind Pressure Humidity
    00:00 +13°C° 0 mm 1 mps 681 mmHg 90%
    01:00 +13°C° 0 mm 1 mps 681 mmHg 89%
    02:00 +13°C° 0 mm 1 mps 681 mmHg 89%
    03:00 +13°C° 0 mm 1 mps 681 mmHg 89%
    04:00 +12°C° 0 mm 0 mps 681 mmHg 89%
    05:00 +12°C° 0 mm 0 mps 681 mmHg 90%
    06:00 +13°C° 0.1 mm 0 mps 681 mmHg 87%
    07:00 +15°C° 0.1 mm 0 mps 682 mmHg 84%
    08:00 +17°C° 0.1 mm 0 mps 683 mmHg 81%
    09:00 +18°C° 0.7 mm 0 mps 683 mmHg 78%
    10:00 +19°C° 0.7 mm 0 mps 683 mmHg 75%
    11:00 +21°C° 0.7 mm 0 mps 683 mmHg 72%
    12:00 +23°C° 0.8 mm 1 mps 683 mmHg 71%
    13:00 +23°C° 0.8 mm 1 mps 683 mmHg 69%
    14:00 +23°C° 0.8 mm 1 mps 683 mmHg 68%
    15:00 +23°C° 0.8 mm 1 mps 683 mmHg 71%
    16:00 +22°C° 0.8 mm 1 mps 683 mmHg 74%
    17:00 +22°C° 0.8 mm 1 mps 683 mmHg 76%
    18:00 +20°C° 1.2 mm 1 mps 682 mmHg 81%
    19:00 +18°C° 1.2 mm 1 mps 682 mmHg 85%
    20:00 +16°C° 1.2 mm 1 mps 682 mmHg 90%
    21:00 +15°C° 0.3 mm 1 mps 682 mmHg 89%
    22:00 +15°C° 0.3 mm 1 mps 682 mmHg 89%
    23:00 +14°C° 0.3 mm 1 mps 682 mmHg 89%

    10 June, Wednesday

    Time Temperature Precipitation Wind Pressure Humidity
    00:00 +14°C° 0.2 mm 1 mps 682 mmHg 88%
    01:00 +14°C° 0.2 mm 1 mps 682 mmHg 87%
    02:00 +14°C° 0.2 mm 1 mps 682 mmHg 87%
    03:00 +14°C° 0 mm 1 mps 682 mmHg 87%
    04:00 +13°C° 0 mm 1 mps 682 mmHg 88%
    05:00 +13°C° 0 mm 1 mps 682 mmHg 88%
    06:00 +15°C° 0 mm 1 mps 683 mmHg 84%
    07:00 +18°C° 0 mm 1 mps 683 mmHg 80%
    08:00 +20°C° 0 mm 1 mps 684 mmHg 75%
    09:00 +21°C° 0.7 mm 1 mps 684 mmHg 74%
    10:00 +22°C° 0.7 mm 1 mps 684 mmHg 72%
    11:00 +23°C° 0.7 mm 1 mps 684 mmHg 70%
    12:00 +23°C° 0.8 mm 2 mps 684 mmHg 69%
    13:00 +23°C° 0.8 mm 2 mps 684 mmHg 68%
    14:00 +24°C° 0.8 mm 2 mps 684 mmHg 67%
    15:00 +23°C° 0.3 mm 2 mps 683 mmHg 67%
    16:00 +23°C° 0.3 mm 2 mps 683 mmHg 67%
    17:00 +23°C° 0.3 mm 2 mps 683 mmHg 67%
    18:00 +20°C° 0.3 mm 2 mps 683 mmHg 73%
    19:00 +19°C° 0.3 mm 1 mps 683 mmHg 79%
    20:00 +18°C° 0.3 mm 1 mps 682 mmHg 85%
    21:00 +16°C° 0.3 mm 1 mps 682 mmHg 86%
    22:00 +15°C° 0.3 mm 1 mps 682 mmHg 88%
    23:00 +15°C° 0.3 mm 1 mps 683 mmHg 89%
    Show more